This is the latest recevied weather packets stored in our database for station/object KC1ELF. If no packets are shown the sender has not sent any weather packets the latest 10 day(s).
| Time | Temp. | Humidity | Pressure | Rain* | Wind** | Luminosity | Snow |
|---|---|---|---|---|---|---|---|
| 1778130096 | 11.67° C | 92% | 1006.5 hPa | 0.25 mm | - | - | - |
| 1778129496 | 11.67° C | 92% | 1006.3 hPa | 0.25 mm | - | - | - |
| 1778128896 | 12.22° C | 92% | 1006.1 hPa | 0.25 mm | - | - | - |
| 1778128298 | 12.78° C | 92% | 1006.1 hPa | 0.25 mm | - | - | - |
| 1778127696 | 13.33° C | 92% | 1006.1 hPa | 0.25 mm | - | - | - |
| 1778127097 | 13.89° C | 91% | 1006.4 hPa | 0.25 mm | - | - | - |
| 1778126496 | 13.89° C | 92% | 1006.1 hPa | 0.25 mm | - | - | - |
| 1778125896 | 14.44° C | 93% | 1005.7 hPa | 0.25 mm | - | - | - |
| 1778125297 | 14.44° C | 93% | 1005.7 hPa | 0.25 mm | - | - | - |
| 1778124696 | 14.44° C | 94% | 1005.5 hPa | 0.25 mm | - | - | - |
| 1778124096 | 15° C | 94% | 1005.3 hPa | 0.25 mm | - | - | - |
| 1778123496 | 14.44° C | 94% | 1005.3 hPa | 0 mm | - | - | - |
| 1778122896 | 14.44° C | 94% | 1005 hPa | 0 mm | - | - | - |
| 1778122296 | 15° C | 94% | 1005.1 hPa | 0 mm | - | - | - |
| 1778121696 | 14.44° C | 94% | 1005 hPa | 0 mm | - | - | - |
| 1778121096 | 14.44° C | 94% | 1005.1 hPa | 0 mm | - | - | - |
| 1778120497 | 14.44° C | 93% | 1004.9 hPa | 0 mm | - | - | - |
| 1778119896 | 14.44° C | 93% | 1005 hPa | 0 mm | - | - | - |
| 1778119296 | 14.44° C | 93% | 1005 hPa | 0 mm | - | - | - |
| 1778118696 | 14.44° C | 93% | 1005.2 hPa | 0 mm | - | - | - |
| 1778118096 | 14.44° C | 93% | 1005.1 hPa | 0 mm | - | - | - |
| 1778117497 | 14.44° C | 93% | 1005.2 hPa | 0 mm | - | - | - |
| 1778116897 | 14.44° C | 93% | 1005.3 hPa | 0 mm | - | - | - |
| 1778116297 | 14.44° C | 93% | 1005.4 hPa | 0 mm | - | - | - |
| 1778115696 | 15° C | 93% | 1005.3 hPa | 0 mm | - | - | - |
* Rain latest hour (hover to see other rain measurements)
** Current wind speed in m/s (hover to see current wind gust speed)